EUTELSAT 65 WEST A

Last updated on Jan. 22, 2021, 6:26 a.m. UTC

1 41382U 16014A   21021.50465889 -.00000266  00000-0  00000-0 0  9996
2 41382   0.0488 358.4212 0002366 295.4854 303.6200  1.00274243 17767
UTC
Height (km)
Latitude
Longitude
Inclination
Orbital Period
UTC large
Height (km)
Speed (km/s)
/
Latitude / Longitude
Inclination (degrees)
Orbital Period (minutes)
Azimuth
Elevation
Range (km)
Doppler Factor
iOS Compass Heading
iOS Angle

Next 30 passes for location: Hong Kong

Rise time Rise Azimuth (degrees) Set time Set Azimuth (degrees) Duration Max altitude (degrees)

No matching passes for this satellites